Погода в Верхнем Парене

Россия / Магаданская область     62°39′12″N   162°22′54″E
темп.,
°C
ветер,
м/с
пор.,
м/с
влажн.,
%
обл.,
%
осадки,
мм/ч
давл.,
гПа
погр.,
м
7 мая, пт
пт723:00−13с33885 0.0 101812
02:00−15ссв32885 0.0 101710
05:00−14ссв32895 0.0 101713
08:00−8с11835 0.0 101650
11:00−4с12785 0.0 1015215
14:00−3с12776 0.0 1014395
17:00−3зюз11887 0.0 101310
20:00−9с229176 0.0 101410
8 мая, сб
сб823:00−8с2292100 0.0 101411
02:00−6сз1197100 0.5 101422
05:00−5с1197100 1.2 101424
08:00−3св019598 0.5 1015190
11:00−1всв1397100 0.9 1015384
14:00−1всв2597100 0.9 1015472
17:000всв2692100 1.1 1015582
20:00−3ссв1198100 0.2 101610
9 мая, вс
вс923:00−4с2296100 0.4 101718
02:00−6с229394 0.3 101716
05:00−6ссв229176 0.4 101820
08:00−3ссв1283100 0.0 1018102
11:00−1всв118062 0.0 1018283
14:00−1вюв118338 0.0 1018336
17:00−2ю119253 0.0 101810
20:00−7ссв1194100 0.0 101910
10 мая, пн
пн1023:00−8ссв229593 0.0 102012
02:00−10ссв229461 0.0 102010
05:00−11ссв22946 0.0 102011
08:00−5ссв11875 0.0 102043
11:00−2св01835 0.0 1019164
14:00−1в018464 0.0 1019216
17:00−1зюз009263 0.0 101910
20:00−7с22935 0.0 102010
11 мая, вт
вт1123:00−10ссв32925 0.0 102011
02:00−11ссв32915 0.0 102011
05:00−10ссв22895 0.0 102014
08:00−5ссв12855 0.0 101958
11:00−1с12785 0.0 1018195
14:000ссз118719 0.0 1017165
17:00−1сз119213 0.0 101710
20:00−6с22925 0.0 101710